When you browse on this site, cookies collect data to enhance your experience and personalize the content and advertising you see.
Visit our Privacy Policy to learn more. By continuing to use the site, you agree to this use of cookies and data.
  • In Switzerland
  • List of Countries
  • For 7 days
  • Water Temperature
  • Satellite Maps
  • Weather Map
  • Weather Widgets
  • user-avatar
    Login

    Hourly Weather Tomaryne

    Today, 17 July, Wednesday

    Time Temperature Precipitation Wind Pressure Humidity
    00:00 +20°C° 0 mm 2 mps 752 mmHg 66%
    01:00 +19°C° 0 mm 2 mps 752 mmHg 69%
    02:00 +19°C° 0 mm 2 mps 752 mmHg 72%
    03:00 +18°C° 0 mm 2 mps 752 mmHg 73%
    04:00 +18°C° 0 mm 2 mps 752 mmHg 74%
    05:00 +18°C° 0 mm 2 mps 752 mmHg 75%
    06:00 +20°C° 0 mm 2 mps 752 mmHg 67%
    07:00 +23°C° 0 mm 2 mps 752 mmHg 60%
    08:00 +24°C° 0 mm 2 mps 752 mmHg 52%
    09:00 +26°C° 0 mm 2 mps 752 mmHg 46%
    10:00 +27°C° 0 mm 2 mps 752 mmHg 41%
    11:00 +28°C° 0 mm 2 mps 752 mmHg 36%
    12:00 +28°C° 0 mm 2 mps 752 mmHg 34%
    13:00 +29°C° 0 mm 2 mps 752 mmHg 33%
    14:00 +29°C° 0 mm 3 mps 752 mmHg 31%
    15:00 +29°C° 0 mm 3 mps 752 mmHg 32%
    16:00 +29°C° 0 mm 3 mps 752 mmHg 32%
    17:00 +29°C° 0 mm 3 mps 752 mmHg 33%
    18:00 +27°C° 0 mm 2 mps 752 mmHg 37%
    19:00 +26°C° 0 mm 2 mps 752 mmHg 41%
    20:00 +24°C° 0 mm 1 mps 752 mmHg 45%
    21:00 +23°C° 0 mm 1 mps 752 mmHg 49%
    22:00 +22°C° 0 mm 1 mps 752 mmHg 52%
    23:00 +21°C° 0 mm 2 mps 752 mmHg 55%

    Tomorrow, 18 July, Thursday

    Time Temperature Precipitation Wind Pressure Humidity
    00:00 +20°C° 0 mm 2 mps 752 mmHg 58%
    01:00 +19°C° 0 mm 2 mps 752 mmHg 62%
    02:00 +19°C° 0 mm 2 mps 752 mmHg 65%
    03:00 +19°C° 0 mm 2 mps 752 mmHg 67%
    04:00 +18°C° 0 mm 3 mps 753 mmHg 70%
    05:00 +18°C° 0 mm 3 mps 753 mmHg 72%
    06:00 +20°C° 0 mm 3 mps 753 mmHg 65%
    07:00 +22°C° 0 mm 3 mps 753 mmHg 58%
    08:00 +25°C° 0 mm 3 mps 753 mmHg 50%
    09:00 +25°C° 0 mm 3 mps 754 mmHg 46%
    10:00 +26°C° 0 mm 3 mps 754 mmHg 42%
    11:00 +27°C° 0 mm 3 mps 754 mmHg 38%
    12:00 +28°C° 0 mm 3 mps 754 mmHg 35%
    13:00 +29°C° 0 mm 3 mps 754 mmHg 32%
    14:00 +30°C° 0 mm 3 mps 754 mmHg 29%
    15:00 +30°C° 0 mm 4 mps 754 mmHg 29%
    16:00 +30°C° 0 mm 4 mps 754 mmHg 30%
    17:00 +29°C° 0 mm 4 mps 754 mmHg 30%
    18:00 +28°C° 0 mm 4 mps 754 mmHg 35%
    19:00 +26°C° 0 mm 3 mps 754 mmHg 40%
    20:00 +24°C° 0 mm 3 mps 755 mmHg 45%
    21:00 +22°C° 0 mm 3 mps 755 mmHg 49%
    22:00 +21°C° 0 mm 3 mps 755 mmHg 52%
    23:00 +20°C° 0 mm 2 mps 756 mmHg 56%

    Day after tomorrow, 19 July, Friday

    Time Temperature Precipitation Wind Pressure Humidity
    00:00 +19°C° 0 mm 2 mps 756 mmHg 59%
    01:00 +19°C° 0 mm 2 mps 756 mmHg 62%
    02:00 +19°C° 0 mm 1 mps 756 mmHg 64%
    03:00 +19°C° 0 mm 1 mps 757 mmHg 66%
    04:00 +19°C° 0 mm 1 mps 757 mmHg 67%
    05:00 +19°C° 0 mm 1 mps 757 mmHg 68%
    06:00 +21°C° 0 mm 1 mps 757 mmHg 61%
    07:00 +23°C° 0 mm 1 mps 757 mmHg 54%
    08:00 +25°C° 0 mm 1 mps 758 mmHg 47%
    09:00 +26°C° 0 mm 1 mps 758 mmHg 43%
    10:00 +28°C° 0 mm 2 mps 758 mmHg 38%
    11:00 +29°C° 0 mm 3 mps 758 mmHg 34%
    12:00 +30°C° 0 mm 3 mps 758 mmHg 32%
    13:00 +30°C° 0 mm 3 mps 758 mmHg 30%
    14:00 +31°C° 0 mm 3 mps 757 mmHg 29%
    15:00 +31°C° 0 mm 3 mps 757 mmHg 29%
    16:00 +30°C° 0 mm 3 mps 757 mmHg 30%
    17:00 +30°C° 0 mm 3 mps 757 mmHg 30%
    18:00 +29°C° 0 mm 3 mps 757 mmHg 34%
    19:00 +27°C° 0 mm 2 mps 758 mmHg 37%
    20:00 +25°C° 0 mm 2 mps 758 mmHg 41%
    21:00 +24°C° 0 mm 2 mps 758 mmHg 45%
    22:00 +23°C° 0 mm 2 mps 759 mmHg 49%
    23:00 +21°C° 0 mm 2 mps 759 mmHg 54%

    20 July, Saturday

    Time Temperature Precipitation Wind Pressure Humidity
    00:00 +21°C° 0 mm 2 mps 759 mmHg 55%
    01:00 +20°C° 0 mm 2 mps 759 mmHg 56%
    02:00 +20°C° 0 mm 2 mps 759 mmHg 57%
    03:00 +20°C° 0 mm 2 mps 759 mmHg 58%
    04:00 +20°C° 0 mm 2 mps 759 mmHg 59%
    05:00 +20°C° 0 mm 2 mps 759 mmHg 60%
    06:00 +23°C° 0 mm 2 mps 759 mmHg 54%
    07:00 +25°C° 0 mm 2 mps 759 mmHg 47%
    08:00 +28°C° 0 mm 2 mps 760 mmHg 41%
    09:00 +29°C° 0 mm 2 mps 760 mmHg 38%
    10:00 +30°C° 0 mm 2 mps 760 mmHg 34%
    11:00 +31°C° 0 mm 1 mps 760 mmHg 31%
    12:00 +32°C° 0 mm 2 mps 760 mmHg 30%
    13:00 +32°C° 0 mm 2 mps 759 mmHg 28%
    14:00 +34°C° 0 mm 2 mps 759 mmHg 27%
    15:00 +32°C° 0 mm 2 mps 759 mmHg 28%
    16:00 +32°C° 0 mm 2 mps 759 mmHg 29%
    17:00 +33°C° 0 mm 3 mps 759 mmHg 30%
    18:00 +30°C° 0 mm 3 mps 759 mmHg 33%
    19:00 +28°C° 0 mm 2 mps 759 mmHg 35%
    20:00 +27°C° 0 mm 2 mps 759 mmHg 38%
    21:00 +26°C° 0 mm 2 mps 759 mmHg 41%
    22:00 +25°C° 0 mm 2 mps 760 mmHg 44%
    23:00 +24°C° 0 mm 1 mps 760 mmHg 47%

    21 July, Sunday

    Time Temperature Precipitation Wind Pressure Humidity
    00:00 +24°C° 0 mm 1 mps 760 mmHg 48%
    01:00 +23°C° 0 mm 1 mps 760 mmHg 49%
    02:00 +23°C° 0 mm 1 mps 759 mmHg 51%
    03:00 +22°C° 0 mm 1 mps 759 mmHg 51%
    04:00 +22°C° 0 mm 1 mps 759 mmHg 51%
    05:00 +22°C° 0 mm 1 mps 759 mmHg 52%
    06:00 +25°C° 0 mm 1 mps 759 mmHg 46%
    07:00 +27°C° 0 mm 2 mps 759 mmHg 40%
    08:00 +29°C° 0 mm 2 mps 759 mmHg 34%
    09:00 +30°C° 0 mm 2 mps 759 mmHg 32%
    10:00 +32°C° 0 mm 2 mps 759 mmHg 29%
    11:00 +34°C° 0 mm 2 mps 759 mmHg 27%
    12:00 +34°C° 0 mm 2 mps 759 mmHg 27%
    13:00 +35°C° 0 mm 2 mps 759 mmHg 27%
    14:00 +35°C° 0 mm 2 mps 759 mmHg 26%
    15:00 +35°C° 0 mm 2 mps 759 mmHg 28%
    16:00 +34°C° 0 mm 2 mps 758 mmHg 30%
    17:00 +34°C° 0 mm 2 mps 758 mmHg 32%
    18:00 +31°C° 0 mm 2 mps 758 mmHg 35%
    19:00 +30°C° 0 mm 1 mps 759 mmHg 39%
    20:00 +28°C° 0 mm 1 mps 759 mmHg 42%
    21:00 +27°C° 0 mm 1 mps 759 mmHg 44%
    22:00 +27°C° 0 mm 1 mps 759 mmHg 46%
    23:00 +26°C° 0 mm 1 mps 759 mmHg 48%

    22 July, Monday

    Time Temperature Precipitation Wind Pressure Humidity
    00:00 +25°C° 0 mm 1 mps 759 mmHg 49%
    01:00 +25°C° 0 mm 1 mps 759 mmHg 50%
    02:00 +24°C° 0 mm 1 mps 759 mmHg 51%
    03:00 +24°C° 0 mm 1 mps 759 mmHg 52%
    04:00 +24°C° 0 mm 1 mps 759 mmHg 53%
    05:00 +24°C° 0 mm 1 mps 759 mmHg 54%
    06:00 +26°C° 0 mm 1 mps 759 mmHg 49%
    07:00 +28°C° 0 mm 1 mps 759 mmHg 45%
    08:00 +30°C° 0 mm 2 mps 759 mmHg 40%
    09:00 +32°C° 0 mm 2 mps 759 mmHg 37%
    10:00 +34°C° 0 mm 2 mps 759 mmHg 34%
    11:00 +35°C° 0 mm 2 mps 759 mmHg 31%
    12:00 +35°C° 0 mm 2 mps 759 mmHg 30%
    13:00 +36°C° 0 mm 2 mps 758 mmHg 29%
    14:00 +36°C° 0 mm 2 mps 758 mmHg 28%
    15:00 +36°C° 0 mm 2 mps 758 mmHg 29%
    16:00 +35°C° 0 mm 2 mps 757 mmHg 30%
    17:00 +35°C° 0 mm 2 mps 757 mmHg 32%
    18:00 +34°C° 0 mm 2 mps 757 mmHg 34%
    19:00 +31°C° 0 mm 1 mps 757 mmHg 37%
    20:00 +30°C° 0 mm 1 mps 757 mmHg 40%
    21:00 +28°C° 0 mm 1 mps 757 mmHg 43%
    22:00 +27°C° 0 mm 2 mps 757 mmHg 45%
    23:00 +26°C° 0 mm 2 mps 757 mmHg 48%
    Show more